Location: Bamobli
(6.6379°N, 10.9396°W)
Time: 12:53:59
(UTC+00:00)

ISO - Pass Details

Date: 07 June 2020
Orbit: 611 x 69999 km, 0.1° (Epoch: 04 July)

Event Time Altitude Azimuth Distance (km) Brightness Sun altitude
Exits shadow 04:28:58 30° 141° (SE) 1,233 3.6 -27.4°
Drops below altitude 10° 04:30:53 10° 114° (ESE) 1,962 5.0 -27.0°
Sets 04:32:44 0° 105° (ESE) 2,880 6.1 -26.6°
